DW8241 Weather Reports


Display with metric or nautical units.
time (UTC)temp
F
wind
direction
speed
MPH
gust
MPH
rain 1hr
in
rain 24hr
in
rain mn
in
humidity
%
barometer
mb
20260905203026 81 150 3.0 11.0 0.00 0.10 0.10 75 1012.8
20260905201525 81 146 4.0 7.0 0.00 0.10 0.10 77 1013.1
20260905200024 80 135 2.0 7.0 0.00 0.10 0.10 80 1013.5
20260905194519 79 102 3.0 6.0 0.00 0.10 0.10 80 1013.8
20260905193017 78 160 2.0 6.0 0.00 0.10 0.10 84 1014.2
20260905191519 78 101 2.0 5.0 0.00 0.10 0.10 84 1014.4
20260905190018 77 127 2.0 6.0 0.00 0.10 0.10 87 1014.7
20260905184513 77 143 1.0 5.0 0.00 0.10 0.10 88 1014.9
20260905183007 75 115 2.0 5.0 0.00 0.10 0.10 89 1015.2
20260905181503 73 89 2.0 7.0 0.00 0.10 0.10 91 1015.2
20260905180002 74 110 3.0 7.0 0.00 0.10 0.10 91 1015.4
20260905174605 73 132 3.0 7.0 0.00 0.10 0.10 93 1015.6
20260905173055 71 160 1.0 6.0 0.01 0.10 0.10 96 1016.0
20260905171615 70 148 1.0 6.0 0.05 0.10 0.10 99 1016.2
20260905170101 68 145 2.0 9.0 0.05 0.10 0.10 100 1016.3
20260905164551 65 86 2.0 8.0 0.06 0.10 0.10 99 1016.6
20260905163053 64 78 2.0 13.0 0.08 0.09 0.09 99 1017.1
20260905161547 64 293 2.0 6.0 0.05 0.05 0.05 98 1017.5
20260905160049 64 39 5.0 13.0 0.05 0.05 0.05 98 1017.7
20260905154556 65 24 9.0 16.0 0.04 0.04 0.04 96 1017.8
20260905153041 67 34 6.0 11.0 0.01 0.01 0.01 94 1017.1
20260905151539 68 36 2.0 9.0 0.00 0.00 0.00 93 1016.8
20260905150042 68 18 0.0 2.0 0.00 0.00 0.00 92 1016.2
20260905144537 68 101 0.0 1.0 0.00 0.00 0.00 92 1016.0
20260905143032 68 75 0.0 2.0 0.00 0.00 0.00 93 1015.5
20260905141530 67 103 0.0 1.0 0.00 0.00 0.00 94 1015.3
20260905140028 66 98 0.0 1.0 0.00 0.00 0.00 96 1015.0
20260905134526 66 129 0.0 2.0 0.00 0.00 0.00 97 1015.1
20260905133024 65 184 0.0 3.0 0.00 0.00 0.00 97 1015.0
20260905131533 65 153 0.0 3.0 0.00 0.00 0.00 98 1014.9
20260905130021 65 133 0.0 6.0 0.00 0.01 0.00 98 1014.5
20260905124520 64 105 0.0 3.0 0.00 0.01 0.00 98 1014.3
20260905123026 64 120 0.0 0.0 0.00 0.00 0.00 99 1014.5
20260905121519 64 141 1.0 6.0 0.00 0.01 0.00 99 1014.5
20260905120024 64 106 0.0 3.0 0.00 0.01 0.00 99 1014.6
20260905114520 64 141 0.0 3.0 0.00 0.01 0.00 99 1014.7
20260905113017 64 163 1.0 4.0 0.00 0.01 0.00 99 1014.8
20260905111520 64 138 0.0 2.0 0.00 0.01 0.00 99 1014.6
20260905110014 64 145 1.0 5.0 0.00 0.01 0.00 99 1014.5
20260905104518 63 156 2.0 5.0 0.00 0.01 0.00 99 1014.2
20260905103014 63 115 0.0 3.0 0.00 0.01 0.00 99 1013.6
20260905101512 63 97 0.0 4.0 0.00 0.01 0.00 99 1013.3
20260905100011 63 109 0.0 3.0 0.00 0.01 0.00 99 1012.9
20260905094510 63 115 1.0 4.0 0.00 0.01 0.00 99 1013.0
20260905093008 63 80 0.0 3.0 0.00 0.01 0.00 98 1013.4
20260905091507 64 117 0.0 2.0 0.00 0.01 0.00 98 1013.7
20260905090008 64 100 0.0 3.0 0.00 0.01 0.00 98 1014.1
20260905084505 64 130 0.0 2.0 0.00 0.01 0.00 98 1013.9
20260905083005 64 122 0.0 3.0 0.00 0.01 0.00 98 1013.9
20260905081504 64 129 0.0 2.0 0.00 0.01 0.00 98 1013.3
20260905080002 64 113 0.0 1.0 0.00 0.01 0.00 98 1013.8
20260905074501 64 132 0.0 1.0 0.00 0.01 0.00 98 1014.2
20260905073110 64 126 0.0 0.0 0.00 0.01 0.00 98 1014.2
20260905071601 64 114 0.0 0.0 0.00 0.01 0.00 98 1014.1
20260905070058 65 142 0.0 1.0 0.00 0.01 0.00 98 1014.2
20260905064556 65 91 0.0 1.0 0.00 0.01 0.00 98 1013.9
20260905063056 65 108 0.0 2.0 0.00 0.01 0.00 97 1013.9
20260905061604 65 129 0.0 1.0 0.00 0.01 0.00 97 1014.1
20260905060105 65 143 0.0 0.0 0.00 0.01 0.00 97 1014.2
20260905054601 65 143 0.0 0.0 0.00 0.01 0.00 96 1014.2
20260905053049 66 139 0.0 2.0 0.00 0.01 0.00 96 1013.9
20260905051604 66 139 0.0 3.0 0.00 0.01 0.00 95 1013.9
20260905050044 66 138 0.0 2.0 0.00 0.01 0.00 94 1013.7
20260905044545 67 136 0.0 2.0 0.00 0.01 0.01 93 1013.7
20260905043043 67 129 0.0 1.0 0.00 0.01 0.01 93 1013.8
20260905041543 68 138 0.0 1.0 0.00 0.01 0.01 91 1014.0
20260905040042 68 111 0.0 1.0 0.00 0.01 0.01 90 1014.0
20260905034542 69 120 0.0 3.0 0.00 0.01 0.01 88 1013.9
20260905033051 69 123 0.0 2.0 0.00 0.01 0.01 87 1014.0
20260905031546 70 110 0.0 2.0 0.00 0.01 0.01 85 1014.0
20260905030043 70 120 0.0 3.0 0.00 0.01 0.01 84 1013.8
20260905024558 70 86 0.0 0.0 0.00 0.01 0.01 84 1013.9
20260905023042 70 86 0.0 0.0 0.00 0.01 0.01 83 1013.8
20260905021540 71 86 0.0 0.0 0.00 0.01 0.01 81 1013.7
20260905020039 72 78 0.0 1.0 0.00 0.01 0.01 80 1013.6
20260905014542 73 78 0.0 0.0 0.00 0.01 0.01 79 1013.5
20260905013052 73 78 0.0 0.0 0.00 0.01 0.01 78 1013.4
20260905011538 75 78 0.0 1.0 0.00 0.01 0.01 77 1013.2
20260905010038 76 91 0.0 0.0 0.00 0.01 0.01 75 1013.1
20260905004536 78 106 0.0 0.0 0.00 0.01 0.01 73 1013.0
20260905003037 80 105 0.0 1.0 0.00 0.01 0.01 73 1013.0
20260905001536 82 84 0.0 4.0 0.00 0.01 0.01 69 1013.0
20260905000035 82 95 0.0 2.0 0.00 0.01 0.01 69 1012.8
20260904234540 83 101 0.0 2.0 0.00 0.01 0.01 68 1012.8
20260904233034 83 94 1.0 3.0 0.00 0.01 0.01 67 1012.6
20260904231533 84 120 0.0 3.0 0.00 0.01 0.01 67 1012.4
20260904230045 84 117 1.0 4.0 0.00 0.01 0.01 65 1012.7
20260904224530 84 162 1.0 3.0 0.00 0.01 0.01 65 1012.9
20260904223030 84 149 2.0 5.0 0.00 0.01 0.01 67 1012.9
20260904221527 84 82 1.0 4.0 0.00 0.01 0.01 69 1012.8
20260904220025 84 142 0.0 3.0 0.00 0.01 0.01 69 1012.7
20260904214523 83 78 2.0 5.0 0.00 0.01 0.01 68 1012.7
20260904213024 83 100 1.0 5.0 0.00 0.01 0.01 70 1012.8
20260904211522 82 109 1.0 5.0 0.00 0.01 0.01 70 1012.8
20260904210018 82 50 1.0 5.0 0.00 0.01 0.01 75 1013.1
20260904204515 81 149 1.0 4.0 0.00 0.01 0.01 73 1013.4